User: anonymous   Login
Location: Niverville
(49.6028°N, 97.0419°W)
Time: 11:45:57
(UTC-05:00)
Language:

Cosmos 2237 Rocket - Orbit

View from above orbital plane
View from above orbital plane
View from above satellite
View from above satellite

Ground track
Ground track

The orbit data is extracted from the following two-line orbital elements,

1 22566U 93016B   15180.86412817 -.00000280  00000-0 -12039-3 0  9992
2 22566 071.0070 134.6688 0009335 158.4364 201.7153 14.14902401149666
Epoch (UTC): 29 June 2015 20:44:20
Eccentricity: 0.0009335
inclination: 71.0070°
perigee height: 836 km
apogee height: 849 km
right ascension of ascending node: 134.6688°
argument of perigee: 158.4364°
revolutions per day: 14.14902401
mean anomaly at epoch: 201.7153°
orbit number at epoch: 14966

The dashed part of the orbit path shows where the satellite is in the earth's shadow,  

DLR